Back to catalog

METEOR 1-10

AliveWeatherPO
NORAD 5731·PAYLOAD·🇷🇺 Russia

Launched Dec 29, 1971 from Plesetsk Cosmodrome

Loading…

Next Passes (next 24 hours)

TLE

FreshSource: Space-Track

Epoch: Sep 14, 2026, 01:38 UTC

1 05731U 71120A   26257.06807067  .00000167  00000-0  84261-4 0  9992
2 05731  81.2573 293.7629 0023886 161.7337 198.4699 14.11897020808653

Track METEOR 1-10 in real time with AllMySat

Download on the App Store